Regional Weather Roundup
Issued by NWS Wakefield, VA

Home | Current Version | Previous Version | Graphics & Text | Print | Product List | Glossary On
Versions: 1 2 3 4 5 6 7 8 9 10 11 12 13 14 15 16 17 18 19 20 21 22 23 24 25 26 27 28 29 30 31 32 33 34 35 36 37 38 39 40 41 42 43 44 45 46 47 48 49 50
000
ASUS41 KAKQ 071715
RWRAKQ

REGIONAL WEATHER ROUNDUP
NATIONAL WEATHER SERVICE WAKEFIELD VA
1200 PM EST WED DEC 07 2016

Note: "fair" indicates few or no clouds below 12,000 feet with no
significant weather and/or obstructions to visibility. * = Denotes
station may not report precipitation (e.g., rain,snow,etc.),
thunder or fog.

VAZ042-051-052>054-056-071800-
NORTHERN VIRGINIA

CITY           SKY/WX    TMP DP  RH WIND       PRES   REMARKS
WASH NATIONAL  PTSUNNY   50  35  56 N13       30.05F
DULLES         PTSUNNY   47  33  58 NW12G21   30.04F
FORT BELVOIR   CLOUDY    49  34  56 NW9       30.04F
QUANTICO       PTSUNNY   51  34  52 N10       30.06S
FREDERICKSBRG* SUNNY     50  39  65 NW6       30.04F
STAFFORD*      SUNNY     49  37  61 NW10G16   30.08F
WARRENTON      MOSUNNY   50  33  52 NW10      30.04F
CULPEPER*      SUNNY     49  38  65 CALM      30.06F
MANASSAS*      SUNNY    N/A N/A N/A N12       30.06F
LEESBURG*      MOSUNNY   46  37  71 N5        30.06S
WINCHESTER     SUNNY     45  32  61 W9        30.04S
FRONT ROYAL*   FAIR      46  32  57 CALM      30.03F
LURAY*         FAIR      45  41  87 CALM      30.04F
$$

VAZ048-049-060>072-079>083-071800-
CENTRAL AND SOUTH CENTRAL VIRGINIA

CITY           SKY/WX    TMP DP  RH WIND       PRES   REMARKS
RICHMOND       MOSUNNY   53  40  61 VRB6      30.03F
CHESTERFIELD*  FAIR      55  30  38 NW6       30.05F
PETERSBURG*    SUNNY     53  42  65 NW6       30.04F
HANOVER        MOSUNNY   53  39  59 NW7       30.05F
TAPPAHANNOCK*  SUNNY     52  36  54 NW10      30.05R
QUINTON*       FAIR      53  41  64 N8        30.03F
CHARLOTTSVILLE SUNNY     51  40  65 CALM      30.03F
GORDONSVILLE*  FAIR      49  42  76 CALM      30.04F
ORANGE*          N/A     48  41  76 CALM      30.06S
LOUISA*        MOSUNNY   52  46  82 CALM      30.03F
BUMPASS*       FAIR      49  42  76 N5        30.04F
FARMVILLE*     SUNNY     54  43  67 CALM      30.03F
CREWE*         FAIR      53  43  69 N6        30.04S
FORT PICKETT*  FAIR      52  40  63 NW8       30.04F
CHASE CITY*    FAIR      52  40  64 W3        30.04F
CLARKSVILLE*   FAIR      52  43  71 CALM      30.04F
SOUTH HILL*    SUNNY     53  43  68 N5        30.09F
LAWRENCEVILLE* FAIR      53  42  67 NW6       30.03F
EMPORIA*       SUNNY     52  43  71 W6        30.05F
$$

VAZ088>098-071800-
SOUTHEAST VIRGINIA

CITY           SKY/WX    TMP DP  RH WIND       PRES   REMARKS
NORFOLK        SUNNY     52  43  71 N12G18    30.01F
VIRGINIA BEACH MOSUNNY   52  44  74 N14       30.01S
NORFOLK NAVAL  MOSUNNY   55  42  61 N10       30.03F
WEST POINT*    SUNNY     53  38  57 N7        30.04F
SALUDA*        PTSUNNY   52  42  69 NW10      30.02F
NEWPORT NEWS   MOSUNNY   55  41  59 NW9       30.02F
LANGLEY AFB    MOSUNNY   54  43  67 N10       30.01F
FORT EUSTIS    MOSUNNY   55  41  59 NW8       30.00F
WILLIAMSBURG*  SUNNY     57  43  58 N12       30.03F
HR EXEC AP*    FAIR      54  43  66 N8        30.01F
FRANKLIN*      SUNNY     53  42  67 NW3       30.03F
US460-WAKEFLD  SUNNY     53  41  63 N7        30.04F
$$

VAZ020-022-025-037-045-071800-
WEST CENTRAL AND SOUTHWEST VIRGINIA

CITY           SKY/WX    TMP DP  RH WIND       PRES   REMARKS
STAUNTON*      SUNNY     43  37  77 CALM      30.06S
WAYNESBORO*    FAIR      46  32  57 CALM      30.03F
HOT SPRINGS VA SUNNY     37  30  75 W8        29.98F
LYNCHBURG      SUNNY     53  35  50 W5        30.05F
DANVILLE       SUNNY     54  36  50 VRB5      30.04F
SOUTH BOSTON*  FAIR      53  39  58 NE3       30.05F
MARTINSVILLE   SUNNY     53  32  46 N5        30.07F
ROANOKE        SUNNY     50  31  48 SW7       30.07F
BLACKSBURG     SUNNY     45  32  60 W6        30.09F
DUBLIN*        SUNNY     47  33  57 W7        30.07F
MARION*        SUNNY     46  36  66 SW6       30.08F
HILLSVILLE*    SUNNY     43  32  65 NW10      30.03F
RICHLANDS*     PTSUNNY   40  33  75 CALM      30.08S
WISE*          MOSUNNY   41  32  70 N5        30.09F
ABINGDON*      SUNNY     47  33  57 CALM      30.07F
$$

MDZ021>025-VAZ099-100-071800-
SOUTHERN MARYLAND AND THE DELMARVA PENINSULA

CITY           SKY/WX    TMP DP  RH WIND       PRES   REMARKS
PATUXENT RIVER MOSUNNY   50  41  71 NW13      30.02F
BAY BRIDGE APT MOSUNNY   48  43  81 N8        30.02F HAZE
LEONARDTOWN    SUNNY     50  37  62 NW6       30.04R
DOVER          MOSUNNY   48  48 100 N8        30.01
GEORGETOWN     PTSUNNY   49  43  80 N7        29.99F
EASTON         PTSUNNY   52  41  66 NW9       30.04F
CAMBRIDGE      MOSUNNY   46  41  81 NW9       30.00F
SALISBURY      PTSUNNY   49  43  80 N9        29.98F
OCEAN CITY     CLOUDY    50  45  83 N7        29.98F
WALLOPS ISLAND PTSUNNY   50  45  83 N8        29.99F
ACCOMACK*      PTSUNNY   50  44  80 N7        30.00F
$$

NCZ012>017-030>032-071800-
NORTH CENTRAL AND EASTERN NORTH CAROLINA

CITY           SKY/WX    TMP DP  RH WIND       PRES   REMARKS
ROANOKE RAPIDS FAIR      52  43  71 NE3       30.04F
RALEIGH        MOSUNNY   56  41  57 CALM      30.05F
ELIZABETH CITY MOSUNNY   55  44  66 N12       30.02F
AHOSKIE*       SUNNY     50  42  75 NW5       30.05F
EDENTON*       MOSUNNY   55  46  70 N6G17     30.04F
CURRITUCK*     NOT AVBL
KILL DEVIL HLS MOSUNNY   52  47  83 N12G17    30.00F
MANTEO         CLOUDY    51  45  82 N12G17    30.02F
CAPE HATTERAS  CLOUDY    50  45  83 VRB5      30.02S
TARBORO*       NOT AVBL
GOLDSBORO      SUNNY     57  45  65 CALM      30.03F
WASHINGTON     SUNNY     56  44  64 N7        30.05F
GREENVILLE     SUNNY     54  45  71 N7G16     30.07F
NEW BERN       SUNNY     55  45  68 N8        30.05F
WILMINGTON     SUNNY     57  45  64 N8        30.04F
$$

VAZ048-071800-
ELSEWHERE

CITY           SKY/WX    TMP DP  RH WIND       PRES   REMARKS
HARRISBURG PA  PTSUNNY   45  35  68 NW9       30.00F
BALTIMORE      PTSUNNY   48  39  71 NW10      30.02S
ANNAPOLIS      MOSUNNY   50  39  66 NW10      30.01F
ANDREWS AFB    SUNNY     48  35  60 NW13      30.02F
PHILADELPHIA   CLOUDY    46  39  76 NW10      29.99F
HENDERSON NC   SUNNY     50  39  64 N6        30.04F
GREENSBORO     MOSUNNY   55  37  50 N5        30.03F
ROCKY MOUNT    SUNNY     56  43  61 N8        30.05F
$$

VAZ100-071800-
MARINE

STATION/POSITION TIME  TEMP    WIND        PRES    WAVE   SWELL
                       AIR SEA DIR/SP/G            HT/PER HT/PER
                 (UTC) (F)     (DEG/KT/KT) (MB)    (FT/S) (FT/S)
BRANDYWINE LGT   1642   44     360/  9/ 11   N/A
CAPE MAY NJ      1642   45 48  350/  6/  9 1015.0F
LEWES DE         1642   44 48  350/ 11/ 13 1015.5F
OCEAN-CITY-INLET 1642   47 50   20/  7/  8 1015.6F
WACHAPREAGUE VA  1642   51 50  340/  4/ 12 1015.6F
THOMAS POINT MD  1700   47 48  310/ 10/ 12   N/A
GOOSES REEF MD   1700   48 49   10/ 10/ 12 1017.2    1/ 2
COVE POINT MD    1642   47     360/ 12/ 14 1017.1F
SOLOMONS ISLAND  1642   49 51  310/  8/ 11   N/A
BISHOPS HEAD MD  1642   50 47  340/  8/ 14 1016.3F
PINEY POINT MD   1636          340/ 16/ 17   N/A
POTOMAC MD       1700   49 51  320/ 14/ 16 1015.8    1/ 2
CAMBRIDGE MD     1642   47 47  340/  9/ 12 1015.3F
LEWISETTA VA     1642   48 48  330/ 12/ 16 1016.5F
RAPPAHANNOCK LGT 1636          330/ 14/ 16 1016.8S
STINGRAY PT      1700   50      10/ 12/ 16 1016.7    1/ 2
YORK RVR RNG VA  1642   50     350/ 11/ 13 1016.0F
YORKTOWN VA      1642   52 51   10/ 14/ 17 1016.1F
JAMESTOWN VA     1700   52 52  330/  8/ 12   N/A     0
DOMINION TERM VA 1642   52     360/  9/ 13 1016.6F
KIPTOPEKE VA     1636      52  340/ 14/ 19   N/A
CHES BAY BRIDGE  1636   49 52  330/ 10/ 11 1016.4F
CAPE HENRY VA    1636   49     330/ 13/ 16   N/A
WILLOUBY STN VA  1636   51     350/ 13/ 16 1017.4F
S CRANEY ISL VA  1636   51     360/ 10/ 13 1016.4F
CAPE HENRY BUOY  1642      55                N/A     6/ 9   2/11
1ST LANDING BUOY 1700   49 53              1016.2    3/ 4
CAPE CHARLES BUO 1656      54                N/A     6/10   2/11
OFFSHORE WE BUOY 1651      56                N/A     7/ 9   2/11
64NM E OF VA BCH 1650   52 59  350/ 19/ 23 1014.3F   8/10   3/10
DUCK PIER NC     1636   51 54  340/ 20/ 23 1015.2F
44100 DUCK FRF   1635      56                N/A     8/ 9   2/11
OREGON INLET NC  1636   50 56  320/ 13/ 17 1015.9F
HATTERAS NC      1636   49 60  340/ 14/ 17 1016.4R
DIAMOND SHLS NC  1650   55 76  350/ 16/ 21 1016.1F   6/11   3/11
CAPE LOOKOUT NC  1600   51     350/ 11/ 13 1017.1R
$$



USA.gov is the U.S. government's official web portal to all federal, state and local government web resources and services.